Terminal Aerodrome Forecast
Issued by NWS

Home | Current Version | Previous Version | Text Only | Print | Product List | Glossary On
Versions: 1 2 3 4 5 6 7 8 9 10 11 12 13
000
FTUS42 TJSJ 291100
TAFJSJ
TAF
TJSJ 291120Z 2912/3012 12004KT P6SM FEW025 SCT040
     FM291450 07014KT P6SM SCT030 SCT050
     FM292200 10006KT P6SM FEW035=

USA.gov is the U.S. government's official web portal to all federal, state and local government web resources and services.